Stations météo

Publicité
Albi, France (7632): Température de l'air & dewpoint: 22.01.2020 16:00:00 - 28.01.2020 16:00:00 (CET)Albi, France (7632): Température de l'air 5cm: 22.01.2020 16:00:00 - 28.01.2020 16:00:00 (CET)Albi, France (7632): Température de l'air -20cm & Température de l'air -100cm: 22.01.2020 16:00:00 - 28.01.2020 16:00:00 (CET)Albi, France (7632): Vitesse du vent & gusts: 22.01.2020 16:00:00 - 28.01.2020 16:00:00 (CET)Albi, France (7632): Direction du vent: 22.01.2020 16:00:00 - 28.01.2020 16:00:00 (CET)Albi, France (7632): reduced air pressure: 22.01.2020 16:00:00 - 28.01.2020 16:00:00 (CET)Albi, France (7632): visibility: 22.01.2020 16:00:00 - 28.01.2020 16:00:00 (CET)Albi, France (7632): Ensoleillement: 22.01.2020 16:00:00 - 28.01.2020 16:00:00 (CET)Albi, France (7632): Quantités de précipitations: 22.01.2020 16:00:00 - 28.01.2020 16:00:00 (CET)
Date & Time tt [°C] td [°C] tt 5cm [°C] tt -20cm [°C] tt -100cm [°C] ff [km/h] ff [knt] fx [km/h] fx [knt] dd ppp [hPa] vv [km] sd [min] rr [mm]
28.01.2020 16:00:00 9,8 7,0 8,9 8,2 10,4 23 12 37 20 W 1017,6 14 5 1,6
28.01.2020 15:00:00 10,7 7,2 9,1 8,1 10,4 19 11 50 27 W 1017,4 20 8 0,2
28.01.2020 14:00:00 12,4 7,5 12,8 8,2 10,4 24 13 44 24 W 1017,4 20 29 0,0
28.01.2020 13:00:00 11,6 7,7 10,4 8,1 10,4 25 13 47 26 WSW 1017,9 20 13 0,0
28.01.2020 12:00:00 10,6 8,0 9,1 8,1 10,3 21 12 47 25 WSW 1018,4 20 0 0,6
28.01.2020 11:00:00 10,1 8,0 9,8 8,1 10,4 21 11 30 16 SW 1018,1 12 4 0,0
28.01.2020 10:00:00 9,2 7,5 8,2 8,1 10,4 16 8 24 13 SW 1017,9 19 1 0,0
28.01.2020 09:00:00 8,3 7,1 8,0 8,1 10,4 10 5 19 11 SW 1017,9 20 0 0,0
28.01.2020 08:00:00 8,4 7,0 7,5 8,1 10,4 13 7 24 13 SSW 1016,8 20 0 0,6
28.01.2020 07:00:00 7,7 7,1 7,3 8,1 10,4 7 4 14 8 S 1016,1 11 0 2,0
28.01.2020 06:00:00 7,8 7,2 7,0 8,1 10,4 9 5 18 10 W 1015,9 2,5 0 1,4
28.01.2020 05:00:00 7,1 6,4 6,2 8,1 10,4 3 2 9 5 NW 1014,5 10 0 0,0
28.01.2020 04:00:00 7,0 6,3 6,6 8,1 10,4 2 1 5 3 NE 1014,7 19 0 0,0
28.01.2020 03:00:00 6,7 6,1 6,3 8,1 10,4 2 1 8 4 E 1015,0 16 0 0,0
28.01.2020 02:00:00 6,7 6,0 4,8 8,1 10,3 0 0 27 15 N 1014,7 20 0 0,0
28.01.2020 01:00:00 5,1 4,7 2,3 8,1 10,4 3 2 10 6 SE 1014,1 5 0 0,0
28.01.2020 00:00:00 4,5 3,3 2,8 8,1 10,4 3 1 7 4 W 1014,1 0,3 0 0,0
27.01.2020 23:00:00 7,4 5,5 5,4 8,0 10,3 3 2 11 6 ENE 1014,4 20 0 0,0
27.01.2020 22:00:00 8,3 6,8 7,2 8,0 10,4 4 2 10 5 NE 1015,1 20 0 0,0
27.01.2020 21:00:00 8,5 6,8 7,7 8,0 10,4 5 3 9 5 NE 1015,6 18 0 0,0
27.01.2020 20:00:00 8,4 6,9 7,7 8,0 10,4 5 3 11 6 ESE 1015,9 19 0 0,0
27.01.2020 19:00:00 8,0 6,8 7,5 8,0 10,4 6 3 11 6 SE 1016,4 15 0 1,0
27.01.2020 18:00:00 8,4 6,9 7,7 7,9 10,4 0 0 8 4 N 1016,3 7 0 0,8
27.01.2020 17:00:00 9,5 6,2 8,4 7,9 10,4 4 2 11 6 NW 1016,5 19 0 0,2
27.01.2020 16:00:00 9,9 5,7 9,7 7,8 10,4 7 4 13 7 E 1015,9 20 0 0,0
27.01.2020 15:00:00 10,4 4,5 11,1 7,8 10,4 0 0 10 5 N 1016,4 20 0 0,0
27.01.2020 14:00:00 9,4 4,4 10,5 7,8 10,4 9 5 14 8 E 1016,7 20 0 0,0
27.01.2020 13:00:00 8,7 4,1 9,8 7,8 10,3 10 6 15 8 ENE 1017,5 20 0 0,0
27.01.2020 12:00:00 7,6 4,0 7,6 7,9 10,4 9 5 18 10 ENE 1018,5 20 0 0,0
27.01.2020 11:00:00 6,4 3,5 5,6 7,9 10,3 11 6 17 9 ENE 1018,8 20 0 0,0
27.01.2020 10:00:00 4,7 3,7 3,0 7,9 10,4 5 3 11 6 NE 1019,2 20 5 0,0
27.01.2020 09:00:00 3,3 2,7 0,5 7,9 10,4 9 5 14 7 ENE 1019,2 16 0 0,0
27.01.2020 08:00:00 2,6 2,2 0,4 7,9 10,4 3 2 10 5 NE 1020,3 11 0 0,0
27.01.2020 07:00:00 2,5 1,8 1,0 7,9 10,4 4 2 14 8 E 1020,3 11 0 0,0
27.01.2020 06:00:00 4,1 3,7 3,5 8,0 10,4 11 6 16 9 ENE 1020,7 13 0 0,0
27.01.2020 05:00:00 4,3 4,0 4,5 8,0 10,4 7 4 11 6 NNE 1021,4 5 0 0,0
27.01.2020 04:00:00 4,7 4,4 4,8 8,0 10,4 7 4 10 6 E 1021,5 0,6 0 0,0
27.01.2020 03:00:00 4,8 4,5 4,8 8,0 10,4 4 2 9 5 E 1022,4 0,3 0 0,0
27.01.2020 02:00:00 4,8 4,5 3,7 8,0 10,4 9 5 13 7 E 1022,4 0,2 0 0,0
27.01.2020 01:00:00 3,6 3,2 2,0 8,0 10,4 3 2 5 3 E 1023,3 0,2 0 0,0
27.01.2020 00:00:00 3,4 3,0 1,6 8,0 10,4 2 1 4 2 ENE 1022,9 0,1 0 0,0
26.01.2020 23:00:00 4,1 3,1 1,9 8,0 10,4 4 2 10 5 WSW 1023,2 0,1 0 0,0
26.01.2020 22:00:00 6,8 6,2 3,5 8,0 10,4 5 3 9 5 E 1022,9 2,6 0 0,0
26.01.2020 21:00:00 7,0 6,3 4,7 7,9 10,4 5 3 7 4 E 1023,1 3,2 0 0,0
26.01.2020 20:00:00 7,1 6,2 4,4 7,9 10,4 3 2 5 3 NNE 1023,0 5 0 0,0
26.01.2020 19:00:00 7,4 6,0 5,9 7,9 10,4 5 3 10 6 SE 1022,6 7 0 0,0
26.01.2020 18:00:00 8,7 7,0 8,5 7,9 10,4 3 1 7 4 SSE 1022,4 10 0 0,0
26.01.2020 17:00:00 9,2 7,1 9,8 7,8 10,3 5 3 8 4 SSE 1022,0 12 7 0,0
26.01.2020 16:00:00 9,0 7,3 9,1 7,8 10,4 3 2 9 5 SSW 1022,0 10 0 0,0
26.01.2020 15:00:00 8,4 7,2 8,4 7,8 10,4 4 2 10 6 S 1022,0 7 0 0,0
26.01.2020 14:00:00 8,0 7,1 8,2 7,8 10,4 7 4 10 6 SSW 1022,1 6 0 0,2
26.01.2020 13:00:00 7,7 6,9 8,1 7,8 10,3 5 3 11 6 S 1022,2 5 0 0,0
26.01.2020 12:00:00 7,4 6,8 7,6 7,9 10,4 7 4 11 6 SSW 1022,6 2,3 0 0,0
26.01.2020 11:00:00 6,2 5,6 6,2 7,9 10,3 0 0 3 2 N 1022,4 1,3 0 0,0
26.01.2020 10:00:00 5,5 4,8 5,0 7,9 10,3 0 0 5 3 N 1021,9 15 0 0,0
26.01.2020 09:00:00 4,3 3,9 2,5 8,0 10,4 3 1 4 2 ESE 1021,2 13 2 0,0
26.01.2020 08:00:00 2,9 2,2 2,2 8,0 10,4 2 1 3 2 SW 1020,6 18 0 0,0
26.01.2020 07:00:00 2,9 2,3 0,3 8,0 10,4 2 1 5 3 NE 1019,8 20 0 0,0
26.01.2020 06:00:00 2,2 1,3 0,4 8,0 10,4 0 0 7 4 N 1019,6 15 0 0,0
26.01.2020 05:00:00 2,6 1,9 1,0 8,1 10,3 0 0 5 3 N 1018,9 19 0 0,0
26.01.2020 04:00:00 2,9 2,2 0,3 8,1 10,3 0 0 4 2 N 1018,7 20 0 0,0
26.01.2020 03:00:00 3,6 2,9 0,1 8,1 10,4 3 2 5 3 ENE 1018,5 18 0 0,0
26.01.2020 02:00:00 3,8 2,8 0,6 8,1 10,3 0 0 6 3 N 1018,3 20 0 0,0
26.01.2020 01:00:00 5,2 3,8 1,9 8,1 10,4 2 1 7 4 NE 1018,2 20 0 0,0
26.01.2020 00:00:00 5,7 3,7 2,5 8,1 10,3 3 2 8 4 ENE 1018,3 19 0 0,0
25.01.2020 23:00:00 7,5 4,6 4,7 8,1 10,3 2 1 9 5 N 1018,2 14 0 0,0
25.01.2020 22:00:00 7,6 5,2 4,0 8,1 10,3 6 4 8 5 E 1018,2 13 0 0,0
25.01.2020 21:00:00 7,2 4,5 3,7 8,0 10,3 4 2 5 3 ENE 1018,5 15 0 0,0
25.01.2020 20:00:00 7,7 4,3 4,2 8,0 10,3 4 2 6 3 NE 1018,2 15 0 0,0
25.01.2020 19:00:00 10,1 4,5 6,9 8,0 10,3 6 3 16 9 E 1017,9 20 0 0,0
25.01.2020 18:00:00 10,6 4,7 7,9 7,9 10,4 7 4 16 9 E 1017,6 20 0 0,0
25.01.2020 17:00:00 12,5 5,4 11,6 7,9 10,3 11 6 18 10 E 1017,5 20 0 0,0
25.01.2020 16:00:00 13,4 5,5 13,4 7,8 10,3 13 7 28 15 ESE 1017,4 20 0 0,0
25.01.2020 15:00:00 14,2 5,5 14,5 7,8 10,3 16 8 24 13 ESE 1017,7 20 26 0,0
25.01.2020 14:00:00 14,7 5,5 15,9 7,8 10,3 14 8 24 13 ESE 1018,2 20 45 0,0
25.01.2020 13:00:00 14,7 7,3 17,0 7,8 10,3 4 2 13 7 ENE 1019,0 20 60 0,0
25.01.2020 12:00:00 12,5 6,5 13,4 7,9 10,3 8 4 18 10 NE 1019,9 20 60 0,0
25.01.2020 11:00:00 10,1 6,1 8,7 8,0 10,3 9 5 13 7 NE 1020,2 20 54 0,0
25.01.2020 10:00:00 6,9 5,5 2,2 8,0 10,3 3 2 8 4 E 1020,4 17 60 0,0
25.01.2020 09:00:00 2,6 2,0 -0,8 8,0 10,3 5 3 8 4 ENE 1020,5 16 20 0,0
25.01.2020 08:00:00 2,3 1,6 -0,9 8,1 10,3 6 3 8 5 ENE 1020,5 19 0 0,0
25.01.2020 07:00:00 2,1 1,2 -0,5 8,1 10,3 6 3 11 6 ENE 1020,2 17 0 0,0
25.01.2020 06:00:00 3,7 3,1 0,5 8,2 10,3 9 5 11 6 ENE 1020,2 20 0 0,0
25.01.2020 05:00:00 3,4 3,0 -0,3 8,2 10,3 7 4 10 5 E 1020,4 20 0 0,0
25.01.2020 04:00:00 1,9 1,0 -0,4 8,2 10,3 3 2 6 4 E 1020,8 12 0 0,0
25.01.2020 03:00:00 2,9 2,2 -0,2 8,3 10,3 5 3 8 5 ENE 1021,1 19 0 0,0
25.01.2020 02:00:00 3,1 2,1 0,3 8,3 10,3 0 0 11 6 N 1021,4 15 0 0,0
25.01.2020 01:00:00 2,7 1,8 0,6 8,3 10,3 5 3 8 4 ENE 1021,8 11 0 0,0
25.01.2020 00:00:00 3,9 3,0 0,7 8,3 10,3 2 1 5 3 ENE 1022,3 13 0 0,0
24.01.2020 23:00:00 3,9 2,6 1,4 8,3 10,3 3 1 8 4 NE 1022,3 11 0 0,0
24.01.2020 22:00:00 4,4 3,1 1,9 8,2 10,3 6 3 9 5 ENE 1022,3 12 0 0,0
24.01.2020 21:00:00 5,9 4,1 2,3 8,2 10,3 4 2 7 4 E 1022,2 15 0 0,0
24.01.2020 20:00:00 7,5 4,8 4,5 8,1 10,3 4 2 6 4 E 1021,9 17 0 0,0
24.01.2020 19:00:00 10,1 6,2 7,4 8,1 10,3 3 2 14 7 ENE 1021,2 20 0 0,0
24.01.2020 18:00:00 11,4 6,7 10,6 8,0 10,3 8 4 14 7 ESE 1020,7 20 2 0,0
24.01.2020 17:00:00 11,8 6,7 11,0 8,0 10,3 7 4 22 12 E 1020,5 20 1 0,0
24.01.2020 16:00:00 13,6 6,7 13,8 8,0 10,3 11 6 24 13 E 1020,2 20 7 0,0
24.01.2020 15:00:00 14,6 5,9 14,9 8,0 10,3 16 9 26 14 ESE 1020,4 20 16 0,0
24.01.2020 14:00:00 15,2 7,0 18,6 8,0 10,3 11 6 27 14 S 1020,4 20 60 0,4
24.01.2020 13:00:00 13,7 7,7 17,3 8,0 10,3 8 4 17 9 ENE 1021,2 20 60 0,0
24.01.2020 12:00:00 11,3 8,3 10,9 8,1 10,2 2 1 5 3 ENE 1021,9 19 50 0,0
24.01.2020 11:00:00 7,5 7,4 5,9 8,1 10,3 0 0 4 2 N 1022,3 11 28 0,0
24.01.2020 10:00:00 3,9 3,6 0,6 8,2 10,3 0 0 6 4 N 1022,4 8 1 0,0
24.01.2020 09:00:00 2,3 1,9 -0,3 8,2 10,3 5 3 7 4 E 1022,2 10 0 0,0
24.01.2020 08:00:00 1,6 1,0 -0,4 8,3 10,3 0 0 6 3 N 1022,1 8 0 0,0
24.01.2020 07:00:00 1,7 1,0 -0,3 8,3 10,3 4 2 9 5 E 1021,7 7 0 0,0
24.01.2020 06:00:00 2,4 2,0 -0,4 8,3 10,3 7 4 10 5 E 1021,4 11 0 0,0
24.01.2020 05:00:00 2,9 2,2 0,4 8,4 10,3 3 2 8 4 NE 1021,7 10 0 0,0
24.01.2020 04:00:00 3,0 2,3 0,6 8,4 10,3 0 0 8 5 N 1021,9 7 0 0,0
24.01.2020 03:00:00 4,0 3,1 1,2 8,4 10,3 3 1 11 6 NNE 1022,2 12 0 0,0
24.01.2020 02:00:00 4,0 3,3 1,0 8,4 10,3 9 5 11 6 E 1022,2 11 0 0,0
24.01.2020 01:00:00 5,9 5,3 1,5 8,4 10,3 8 5 13 7 NNE 1022,4 12 0 0,0
24.01.2020 00:00:00 6,0 5,4 2,0 8,4 10,3 4 2 11 6 E 1022,7 8 0 0,0
23.01.2020 23:00:00 5,6 4,6 2,4 8,4 10,2 2 1 10 5 ESE 1022,5 10 0 0,0
23.01.2020 22:00:00 6,7 4,7 4,0 8,4 10,3 4 2 12 6 SSE 1021,9 12 0 0,0
23.01.2020 21:00:00 9,2 6,6 6,4 8,3 10,3 8 4 18 10 E 1021,2 20 0 0,0
23.01.2020 20:00:00 10,2 7,4 7,9 8,2 10,2 9 5 23 12 NNE 1020,7 20 0 0,0
23.01.2020 19:00:00 10,4 8,0 8,6 8,2 10,3 12 7 28 15 ENE 1020,3 20 0 0,0
23.01.2020 18:00:00 11,1 8,5 10,2 8,2 10,3 18 10 30 16 ENE 1019,7 20 24 0,0
23.01.2020 17:00:00 11,7 8,7 11,6 8,1 10,2 21 12 35 19 ENE 1019,6 20 60 0,0
23.01.2020 16:00:00 11,6 9,0 9,9 8,1 10,3 21 12 32 18 E 1020,3 20 10 1,2
23.01.2020 15:00:00 11,1 8,5 10,0 8,0 10,2 9 5 33 18 SE 1020,8 7 0 1,8
23.01.2020 14:00:00 13,0 8,3 10,9 8,0 10,2 21 11 41 22 ENE 1020,6 20 0 0,2
23.01.2020 13:00:00 13,2 8,7 10,9 8,0 10,2 21 12 40 22 E 1021,1 20 2 0,2
23.01.2020 12:00:00 12,0 8,3 10,2 8,0 10,3 21 11 40 22 NE 1021,7 20 3 0,2
23.01.2020 11:00:00 11,4 8,1 9,6 7,9 10,2 16 8 39 21 ENE 1022,8 19 0 0,6
23.01.2020 10:00:00 12,2 6,0 11,7 7,9 10,2 20 11 33 18 ENE 1023,0 20 0 0,0
23.01.2020 09:00:00 12,3 5,2 11,4 7,8 10,2 18 10 35 19 ENE 1022,3 20 0 0,0
23.01.2020 08:00:00 12,1 5,9 11,0 7,9 10,3 24 13 40 22 E 1021,9 20 0 0,0
23.01.2020 07:00:00 12,2 5,4 11,4 7,8 10,3 24 13 35 19 E 1021,7 20 0 0,0
23.01.2020 06:00:00 12,3 5,5 11,4 7,8 10,3 21 11 41 22 E 1022,0 20 0 0,0
23.01.2020 05:00:00 12,3 5,7 11,5 7,8 10,3 16 9 36 19 E 1022,2 20 0 0,0
23.01.2020 04:00:00 12,7 6,1 11,8 7,7 10,3 21 11 36 19 E 1022,7 20 0 0,0
23.01.2020 03:00:00 12,5 5,9 11,6 7,7 10,3 19 11 36 19 ENE 1022,6 20 0 0,0
23.01.2020 02:00:00 12,4 6,2 11,3 7,7 10,3 15 8 26 14 ENE 1022,8 20 0 0,0
23.01.2020 01:00:00 12,1 5,5 11,3 7,7 10,3 14 8 42 23 ENE 1023,2 20 0 0,0
23.01.2020 00:00:00 12,5 5,9 11,2 7,6 10,3 28 15 46 25 E 1023,2 20 0 0,0
22.01.2020 23:00:00 12,5 5,9 11,4 7,6 10,3 23 12 55 30 E 1023,2 20 0 0,0
22.01.2020 22:00:00 13,1 5,7 12,2 7,6 10,3 32 17 59 32 E 1023,1 20 0 0,0
22.01.2020 21:00:00 12,8 5,7 11,5 7,5 10,3 25 13 42 23 E 1023,3 20 0 0,0
22.01.2020 20:00:00 12,1 6,2 11,2 7,4 10,3 16 9 28 15 ENE 1023,4 20 0 0,0
22.01.2020 19:00:00 11,8 5,9 10,9 7,4 10,3 18 10 38 21 ENE 1023,3 20 0 0,0
22.01.2020 18:00:00 11,6 6,1 10,8 7,3 10,3 27 14 44 24 ENE 1023,4 20 0 0,0
22.01.2020 17:00:00 11,6 5,9 11,3 7,3 10,3 26 14 50 27 ENE 1023,6 20 0 0,0
22.01.2020 16:00:00 11,6 6,1 11,8 7,2 10,3 24 13 48 26 E 1024,0 20 0 0,0

tt = Température de l'air
td = dewpoint
tt 5cm = Température de l'air 5cm
tt -20cm = Température de l'air -20cm
tt -100cm = Température de l'air -100cm
ff = Vitesse du vent
fx = gusts
dd = Direction du vent
ppp = reduced air pressure
vv = visibility
sd = Ensoleillement
rr = Quantités de précipitations

stations d'obs. à proximité